User: anonymous   Login
Location: Theydon Bois
(51.6750°N, 0.1050°E)
Time: 19:49:46
(UTC+00:00)
Language:

Cosmos 1821 Rocket - Orbit

View from above orbital plane
View from above orbital plane
View from above satellite
View from above satellite

Ground track
Ground track

The orbit data is extracted from the following two-line orbital elements,

1 17526U 87017B   18047.94668874 +.00000136 +00000-0 +12219-3 0  9994
2 17526 082.9008 217.3145 0040151 354.7048 005.3679 13.76834235539778
Epoch (UTC): 16 February 2018 22:43:13
Eccentricity: 0.0040151
inclination: 82.9008°
perigee height: 945 km
apogee height: 1004 km
right ascension of ascending node: 217.3145°
argument of perigee: 354.7048°
revolutions per day: 13.76834235
mean anomaly at epoch: 5.3679°
orbit number at epoch: 53977

The dashed part of the orbit path shows where the satellite is in the earth's shadow,  

DLR